| time (UTC) | temp C | wind direction | speed KPH | gust KPH | rain 1hr cm | rain 24hr cm | rain mn cm | humidity % | barometer mb |
| 20260510070006 | 15 | 142 | 16.1 | 37.0 | 0.03 | 0.33 | 0.28 | 79 | 1010.8 |
| 20260510064509 | 15 | 118 | 14.5 | 20.9 | 0.00 | 0.28 | 0.23 | 81 | 1010.4 |
| 20260510063013 | 14 | 120 | 9.7 | 20.9 | 0.03 | 0.28 | 0.23 | 82 | 1010.6 |
| 20260510061526 | 13 | 128 | 12.9 | 20.9 | 0.05 | 0.28 | 0.23 | 80 | 1010.6 |
| 20260510060035 | 13 | 138 | 17.7 | 27.4 | 0.05 | 0.28 | 0.23 | 79 | 1010.2 |
| 20260510054514 | 12 | 163 | 11.3 | 27.4 | 0.05 | 0.28 | 0.23 | 79 | 1009.9 |
| 20260510053020 | 13 | 132 | 22.5 | 40.2 | 0.00 | 0.25 | 0.18 | 75 | 1010.5 |
| 20260510051522 | 15 | 164 | 17.7 | 33.8 | 0.00 | 0.23 | 0.18 | 76 | 1009.8 |
| 20260510050023 | 15 | 135 | 16.1 | 33.8 | 0.00 | 0.25 | 0.18 | 80 | 1009.7 |
| 20260510044524 | 15 | 148 | 11.3 | 24.1 | 0.00 | 0.46 | 0.18 | 81 | 1009.8 |
| 20260510043013 | 14 | 166 | 14.5 | 32.2 | 0.00 | 0.48 | 0.18 | 79 | 1009.7 |
| 20260510041518 | 14 | 168 | 12.9 | 32.2 | 0.00 | 0.56 | 0.18 | 79 | 1009.7 |
| 20260510040037 | 14 | 147 | 24.1 | 38.6 | 0.00 | 0.58 | 0.18 | 79 | 1009.8 |
| 20260510034523 | 15 | 136 | 17.7 | 29.0 | 0.00 | 0.66 | 0.18 | 78 | 1009.6 |
| 20260510033011 | 15 | 136 | 16.1 | 35.4 | 0.00 | 0.74 | 0.18 | 76 | 1009.7 |
| 20260510031516 | 15 | 109 | 14.5 | 30.6 | 0.00 | 0.76 | 0.18 | 77 | 1009.6 |
| 20260510030020 | 15 | 94 | 14.5 | 30.6 | 0.00 | 0.76 | 0.18 | 76 | 1009.5 |
| 20260510024523 | 15 | 101 | 14.5 | 29.0 | 0.00 | 0.76 | 0.18 | 81 | 1009.6 |
| 20260510023023 | 15 | 109 | 17.7 | 32.2 | 0.00 | 0.76 | 0.18 | 80 | 1009.6 |
| 20260510021512 | 15 | 107 | 11.3 | 32.2 | 0.00 | 0.76 | 0.18 | 81 | 1009.5 |
| 20260510020021 | 15 | 130 | 16.1 | 29.0 | 0.00 | 0.76 | 0.18 | 80 | 1009.5 |
| 20260510014526 | 14 | 107 | 14.5 | 27.4 | 0.18 | 0.76 | 0.18 | 82 | 1009.6 |
| 20260510013025 | 13 | 108 | 14.5 | 24.1 | 0.18 | 0.76 | 0.18 | 82 | 1009.7 |
| 20260510011526 | 13 | 94 | 14.5 | 30.6 | 0.15 | 0.74 | 0.15 | 84 | 1009.8 |
| 20260510010022 | 14 | 132 | 22.5 | 45.1 | 0.15 | 0.76 | 0.15 | 81 | 1010.1 |
| 20260510004522 | 15 | 112 | 16.1 | 27.4 | 0.00 | 0.61 | 0.00 | 83 | 1010.2 |
| 20260510003026 | 15 | 121 | 14.5 | 24.1 | 0.00 | 0.61 | 0.00 | 83 | 1010.2 |
| 20260510001528 | 15 | 101 | 12.9 | 24.1 | 0.00 | 0.61 | 0.00 | 83 | 1010.3 |
| 20260510000018 | 15 | 119 | 19.3 | 27.4 | 0.00 | 0.61 | 0.00 | 82 | 1010.5 |
| 20260509234530 | 15 | 105 | 22.5 | 35.4 | 0.00 | 0.61 | 0.00 | 79 | 1010.6 |
| 20260509233023 | 16 | 113 | 19.3 | 29.0 | 0.00 | 0.61 | 0.00 | 81 | 1010.5 |
| 20260509231526 | 16 | 148 | 16.1 | 27.4 | 0.00 | 0.61 | 0.00 | 81 | 1010.5 |
| 20260509230028 | 16 | 132 | 19.3 | 30.6 | 0.00 | 0.61 | 0.00 | 81 | 1010.6 |
| 20260509224515 | 16 | 113 | 19.3 | 32.2 | 0.00 | 0.61 | 0.61 | 80 | 1010.6 |
| 20260509223024 | 16 | 114 | 16.1 | 25.7 | 0.00 | 0.61 | 0.61 | 80 | 1010.7 |
| 20260509221533 | 16 | 100 | 19.3 | 32.2 | 0.00 | 0.61 | 0.61 | 79 | 1010.7 |
| 20260509220028 | 16 | 109 | 17.7 | 35.4 | 0.00 | 0.61 | 0.61 | 81 | 1010.7 |
| 20260509214528 | 16 | 123 | 14.5 | 27.4 | 0.00 | 0.61 | 0.61 | 82 | 1010.7 |
| 20260509213020 | 16 | 113 | 19.3 | 32.2 | 0.00 | 0.61 | 0.61 | 81 | 1010.6 |
| 20260509211523 | 16 | 126 | 16.1 | 30.6 | 0.00 | 0.61 | 0.61 | 82 | 1010.5 |
| 20260509210026 | 16 | 98 | 14.5 | 30.6 | 0.00 | 0.61 | 0.61 | 82 | 1010.4 |
| 20260509204528 | 16 | 118 | 19.3 | 29.0 | 0.00 | 0.61 | 0.61 | 81 | 1010.2 |
| 20260509203028 | 16 | 101 | 14.5 | 27.4 | 0.00 | 0.61 | 0.61 | 82 | 1010.1 |
| 20260509201522 | 16 | 134 | 11.3 | 27.4 | 0.00 | 0.61 | 0.61 | 83 | 1009.9 |
| 20260509200024 | 16 | 140 | 12.9 | 27.4 | 0.00 | 0.64 | 0.61 | 82 | 1009.7 |
| 20260509194527 | 16 | 134 | 19.3 | 30.6 | 0.00 | 0.66 | 0.61 | 81 | 1009.6 |
| 20260509193035 | 15 | 110 | 12.9 | 22.5 | 0.03 | 0.66 | 0.61 | 82 | 1009.3 |
| 20260509191519 | 15 | 127 | 11.3 | 24.1 | 0.03 | 0.66 | 0.61 | 79 | 1009.0 |
| 20260509190024 | 15 | 144 | 19.3 | 33.8 | 0.03 | 0.66 | 0.61 | 82 | 1008.9 |
| 20260509184538 | 16 | 132 | 17.7 | 32.2 | 0.03 | 0.66 | 0.61 | 82 | 1008.7 |
| 20260509183028 | 17 | 138 | 19.3 | 30.6 | 0.00 | 0.64 | 0.56 | 80 | 1008.6 |
| 20260509181530 | 17 | 121 | 14.5 | 33.8 | 0.00 | 0.64 | 0.56 | 78 | 1008.5 |
| 20260509180025 | 17 | 129 | 19.3 | 32.2 | 0.00 | 0.64 | 0.56 | 77 | 1008.5 |
| 20260509174526 | 17 | 143 | 14.5 | 25.7 | 0.00 | 0.64 | 0.56 | 77 | 1008.5 |
| 20260509173028 | 18 | 117 | 16.1 | 37.0 | 0.00 | 0.64 | 0.56 | 73 | 1008.4 |
| 20260509171540 | 17 | 134 | 16.1 | 41.8 | 0.00 | 0.64 | 0.56 | 72 | 1008.3 |
| 20260509170020 | 18 | 145 | 19.3 | 40.2 | 0.00 | 0.64 | 0.56 | 74 | 1008.0 |
| 20260509164525 | 18 | 103 | 22.5 | 41.8 | 0.00 | 0.64 | 0.56 | 74 | 1007.9 |
| 20260509163008 | 18 | 135 | 19.3 | 37.0 | 0.00 | 0.64 | 0.56 | 72 | 1007.8 |
| 20260509161512 | 18 | 137 | 19.3 | 33.8 | 0.00 | 0.64 | 0.56 | 73 | 1007.6 |
| 20260509160020 | 18 | 140 | 17.7 | 38.6 | 0.00 | 0.64 | 0.56 | 73 | 1007.5 |
| 20260509154521 | 18 | 139 | 17.7 | 30.6 | 0.00 | 0.64 | 0.56 | 72 | 1007.4 |
| 20260509153030 | 18 | 119 | 17.7 | 38.6 | 0.00 | 0.64 | 0.56 | 72 | 1007.3 |
| 20260509151510 | 18 | 113 | 24.1 | 45.1 | 0.00 | 0.64 | 0.56 | 72 | 1007.2 |
| 20260509150014 | 18 | 150 | 19.3 | 40.2 | 0.00 | 0.64 | 0.56 | 73 | 1007.1 |
| 20260509144520 | 18 | 134 | 19.3 | 32.2 | 0.00 | 0.64 | 0.56 | 77 | 1007.1 |
| 20260509143027 | 18 | 114 | 20.9 | 33.8 | 0.00 | 0.64 | 0.56 | 78 | 1007.1 |
| 20260509141520 | 18 | 122 | 20.9 | 33.8 | 0.00 | 0.64 | 0.56 | 79 | 1007.1 |
| 20260509140016 | 17 | 89 | 24.1 | 35.4 | 0.00 | 0.64 | 0.56 | 80 | 1006.9 |
| 20260509134520 | 17 | 101 | 25.7 | 48.3 | 0.00 | 0.64 | 0.56 | 81 | 1006.9 |
| 20260509133024 | 16 | 90 | 14.5 | 40.2 | 0.00 | 0.64 | 0.56 | 85 | 1006.7 |
| 20260509131524 | 17 | 94 | 25.7 | 40.2 | 0.00 | 0.64 | 0.56 | 80 | 1006.5 |
| 20260509130014 | 17 | 94 | 20.9 | 33.8 | 0.00 | 0.61 | 0.56 | 80 | 1006.4 |
| 20260509124517 | 17 | 119 | 19.3 | 38.6 | 0.00 | 0.61 | 0.56 | 72 | 1006.4 |
| 20260509123021 | 18 | 96 | 22.5 | 40.2 | 0.00 | 0.61 | 0.56 | 71 | 1006.4 |
| 20260509121532 | 18 | 119 | 19.3 | 38.6 | 0.00 | 0.61 | 0.56 | 72 | 1006.3 |
| 20260509120028 | 18 | 124 | 19.3 | 37.0 | 0.00 | 0.61 | 0.56 | 71 | 1006.2 |
| 20260509114513 | 18 | 97 | 17.7 | 41.8 | 0.00 | 0.61 | 0.56 | 71 | 1006.1 |
| 20260509113020 | 18 | 96 | 19.3 | 41.8 | 0.00 | 0.61 | 0.56 | 71 | 1006.0 |
| 20260509111524 | 17 | 129 | 20.9 | 37.0 | 0.00 | 0.61 | 0.56 | 72 | 1005.9 |
| 20260509110007 | 17 | 127 | 16.1 | 37.0 | 0.00 | 0.61 | 0.56 | 73 | 1005.8 |
| 20260509104528 | 17 | 126 | 16.1 | 40.2 | 0.00 | 0.61 | 0.56 | 75 | 1005.7 |
| 20260509103020 | 17 | 96 | 22.5 | 38.6 | 0.00 | 0.61 | 0.56 | 75 | 1005.6 |
| 20260509101522 | 17 | 113 | 22.5 | 32.2 | 0.00 | 0.61 | 0.56 | 75 | 1005.5 |
| 20260509100019 | 16 | 140 | 16.1 | 30.6 | 0.00 | 0.61 | 0.56 | 78 | 1005.2 |
| 20260509094518 | 16 | 135 | 20.9 | 40.2 | 0.00 | 0.61 | 0.56 | 76 | 1005.1 |
| 20260509093016 | 16 | 86 | 16.1 | 29.0 | 0.00 | 0.61 | 0.56 | 82 | 1004.7 |
| 20260509091521 | 15 | 113 | 19.3 | 27.4 | 0.00 | 0.61 | 0.56 | 84 | 1004.6 |
| 20260509090026 | 15 | 121 | 16.1 | 30.6 | 0.00 | 0.61 | 0.56 | 86 | 1004.4 |
| 20260509084514 | 15 | 111 | 22.5 | 29.0 | 0.00 | 0.61 | 0.56 | 86 | 1004.3 |
| 20260509083016 | 15 | 107 | 11.3 | 29.0 | 0.00 | 0.61 | 0.56 | 89 | 1004.0 |
| 20260509081525 | 15 | 107 | 9.7 | 24.1 | 0.00 | 0.61 | 0.56 | 89 | 1003.7 |
| 20260509080023 | 14 | 61 | 8.0 | 19.3 | 0.00 | 0.61 | 0.56 | 90 | 1003.4 |
| 20260509074530 | 13 | 49 | 3.2 | 16.1 | 0.00 | 0.61 | 0.56 | 91 | 1003.3 |
| 20260509073010 | 13 | 61 | 6.4 | 11.3 | 0.00 | 0.61 | 0.56 | 91 | 1003.2 |
| 20260509071519 | 13 | 45 | 6.4 | 19.3 | 0.00 | 0.61 | 0.56 | 91 | 1003.3 |